Time,TemperatureF,DewpointF,PressureIn,WindDirection,WindDirectionDegrees,WindSpeedMPH,WindSpeedGustMPH,Humidity,HourlyPrecipIn,Conditions,Clouds,dailyrainin,SoftwareType,DateUTC
2013-01-07 00:03:00,34.0,31.0,30.14,ENE,64,3.0,9.0,87,0.00,,,0.12,,2013-01-07 05:03:00,
2013-01-07 00:12:00,34.0,31.0,30.14,ENE,64,3.0,9.0,87,0.00,,,0.12,,2013-01-07 05:12:00,
2013-01-07 00:22:00,34.0,31.0,30.14,NE,39,2.0,8.0,87,0.00,,,0.12,,2013-01-07 05:22:00,
2013-01-07 00:33:00,32.0,28.0,30.16,NW,321,2.0,12.0,86,0.00,,,0.12,,2013-01-07 05:33:00,
2013-01-07 00:42:00,32.0,28.0,30.16,NW,321,2.0,12.0,86,0.00,,,0.12,,2013-01-07 05:42:00,
2013-01-07 00:53:00,32.0,30.0,30.16,NNE,30,3.0,11.0,92,0.00,,,0.12,,2013-01-07 05:53:00,
2013-01-07 01:02:00,31.0,28.0,30.18,NNE,28,2.0,10.0,87,0.00,,,0.12,,2013-01-07 06:02:00,
2013-01-07 01:12:00,31.0,28.0,30.18,NNE,28,2.0,10.0,87,0.00,,,0.12,,2013-01-07 06:12:00,
2013-01-07 01:22:00,31.0,28.0,30.19,ENE,69,2.0,9.0,87,0.00,,,0.12,,2013-01-07 06:22:00,
2013-01-07 01:32:00,31.0,27.0,30.21,NNE,22,3.0,9.0,86,0.00,,,0.12,,2013-01-07 06:32:00,
2013-01-07 01:42:00,31.0,27.0,30.21,NNE,22,3.0,9.0,86,0.00,,,0.12,,2013-01-07 06:42:00,
2013-01-07 01:52:00,30.0,26.0,30.22,NE,36,2.0,6.0,86,0.00,,,0.12,,2013-01-07 06:52:00,
2013-01-07 02:02:00,30.0,26.0,30.22,North,5,2.0,8.0,86,0.00,,,0.12,,2013-01-07 07:02:00,
2013-01-07 02:12:00,30.0,26.0,30.22,North,5,2.0,8.0,86,0.00,,,0.12,,2013-01-07 07:12:00,
2013-01-07 02:22:00,30.0,26.0,30.23,North,5,3.0,12.0,86,0.00,,,0.12,,2013-01-07 07:22:00,
2013-01-07 02:33:00,29.0,25.0,30.24,West,268,3.0,7.0,85,0.00,,,0.12,,2013-01-07 07:33:00,
2013-01-07 02:42:00,29.0,25.0,30.24,West,268,3.0,7.0,85,0.00,,,0.12,,2013-01-07 07:42:00,
2013-01-07 02:53:00,29.0,25.0,30.26,NW,313,2.0,7.0,85,0.00,,,0.12,,2013-01-07 07:53:00,
2013-01-07 03:03:00,29.0,25.0,30.26,ENE,71,2.0,8.0,83,0.00,,,0.12,,2013-01-07 08:03:00,
2013-01-07 03:12:00,29.0,25.0,30.26,ENE,71,2.0,8.0,83,0.00,,,0.12,,2013-01-07 08:12:00,
2013-01-07 03:22:00,28.0,24.0,30.27,West,269,2.0,9.0,83,0.00,,,0.12,,2013-01-07 08:22:00,
2013-01-07 03:32:00,28.0,24.0,30.27,NNW,329,0.0,6.0,83,0.00,,,0.12,,2013-01-07 08:32:00,
2013-01-07 03:42:00,28.0,24.0,30.27,NNW,329,0.0,6.0,83,0.00,,,0.12,,2013-01-07 08:42:00,
2013-01-07 03:53:00,27.0,23.0,30.28,NNE,31,2.0,6.0,83,0.00,,,0.12,,2013-01-07 08:53:00,
2013-01-07 04:02:00,27.0,23.0,30.29,WNW,303,1.0,4.0,83,0.00,,,0.12,,2013-01-07 09:02:00,
2013-01-07 04:12:00,27.0,23.0,30.29,WNW,303,1.0,4.0,83,0.00,,,0.12,,2013-01-07 09:12:00,
2013-01-07 04:22:00,27.0,23.0,30.29,NE,39,0.0,3.0,84,0.00,,,0.12,,2013-01-07 09:22:00,
2013-01-07 04:32:00,27.0,22.0,30.30,NNE,29,1.0,5.0,82,0.00,,,0.12,,2013-01-07 09:32:00,
2013-01-07 04:42:00,27.0,22.0,30.30,NNE,29,1.0,5.0,82,0.00,,,0.12,,2013-01-07 09:42:00,
2013-01-07 04:52:00,27.0,23.0,30.31,NE,52,1.0,6.0,83,0.00,,,0.12,,2013-01-07 09:52:00,
2013-01-07 05:02:00,27.0,22.0,30.32,WNW,285,1.0,6.0,82,0.00,,,0.12,,2013-01-07 10:02:00,
2013-01-07 05:12:00,27.0,23.0,30.32,NE,51,1.0,5.0,83,0.00,,,0.08,,2013-01-07 10:12:00,
2013-01-07 05:22:00,27.0,23.0,30.32,NE,51,1.0,5.0,83,0.00,,,0.08,,2013-01-07 10:22:00,
2013-01-07 05:32:00,27.0,23.0,30.32,West,267,1.0,3.0,84,0.00,,,0.08,,2013-01-07 10:32:00,
2013-01-07 05:42:00,27.0,23.0,30.32,West,267,1.0,3.0,84,0.00,,,0.08,,2013-01-07 10:42:00,
2013-01-07 05:52:00,27.0,23.0,30.33,WNW,302,2.0,7.0,83,0.00,,,0.08,,2013-01-07 10:52:00,
2013-01-07 06:02:00,27.0,22.0,30.33,NW,317,1.0,4.0,82,0.00,,,0.08,,2013-01-07 11:02:00,
2013-01-07 06:12:00,27.0,22.0,30.33,NW,317,1.0,4.0,82,0.00,,,0.08,,2013-01-07 11:12:00,
2013-01-07 06:23:00,27.0,23.0,30.33,NW,313,1.0,5.0,83,0.00,,,0.08,,2013-01-07 11:23:00,
2013-01-07 06:33:00,27.0,23.0,30.34,NNE,15,0.0,3.0,83,0.00,,,0.08,,2013-01-07 11:33:00,
2013-01-07 06:43:00,27.0,23.0,30.34,NNE,15,0.0,3.0,83,0.00,,,0.08,,2013-01-07 11:43:00,
2013-01-07 06:53:00,27.0,23.0,30.35,NE,37,0.0,2.0,83,0.00,,,0.08,,2013-01-07 11:53:00,
2013-01-07 07:03:00,27.0,22.0,30.35,NE,38,0.0,1.0,82,0.00,,,0.08,,2013-01-07 12:03:00,
2013-01-07 07:12:00,27.0,22.0,30.36,NE,38,0.0,2.0,82,0.00,,,0.08,,2013-01-07 12:12:00,
2013-01-07 07:22:00,27.0,22.0,30.36,NE,38,0.0,2.0,82,0.00,,,0.08,,2013-01-07 12:22:00,
2013-01-07 07:33:00,27.0,23.0,30.37,NE,38,0.0,2.0,83,0.00,,,0.08,,2013-01-07 12:33:00,
2013-01-07 07:43:00,27.0,23.0,30.37,NE,38,0.0,2.0,83,0.00,,,0.08,,2013-01-07 12:43:00,
2013-01-07 07:53:00,27.0,23.0,30.37,SSW,196,2.0,4.0,84,0.00,,,0.08,,2013-01-07 12:53:00,
2013-01-07 08:02:00,27.0,23.0,30.38,SSW,197,1.0,3.0,83,0.00,,,0.08,,2013-01-07 13:02:00,
2013-01-07 08:12:00,27.0,23.0,30.38,SSW,197,1.0,3.0,83,0.00,,,0.08,,2013-01-07 13:12:00,
2013-01-07 08:23:00,27.0,23.0,30.38,SSW,196,1.0,3.0,83,0.00,,,0.04,,2013-01-07 13:23:00,
2013-01-07 08:33:00,27.0,23.0,30.38,SSW,197,2.0,4.0,83,0.00,,,0.04,,2013-01-07 13:33:00,
2013-01-07 08:42:00,27.0,23.0,30.38,SSW,197,2.0,4.0,83,0.00,,,0.04,,2013-01-07 13:42:00,
2013-01-07 08:53:00,27.0,22.0,30.39,SSW,197,0.0,3.0,82,0.00,,,0.04,,2013-01-07 13:53:00,
2013-01-07 09:03:00,26.0,21.0,30.38,SSW,205,2.0,6.0,82,0.00,,,0.04,,2013-01-07 14:03:00,
2013-01-07 09:12:00,26.0,22.0,30.38,SSW,205,2.0,4.0,83,0.00,,,0.04,,2013-01-07 14:12:00,
2013-01-07 09:23:00,26.0,22.0,30.38,SSW,205,2.0,4.0,83,0.00,,,0.04,,2013-01-07 14:23:00,
2013-01-07 09:33:00,27.0,22.0,30.40,South,190,3.0,5.0,82,0.00,,,0.04,,2013-01-07 14:33:00,
2013-01-07 09:43:00,27.0,22.0,30.40,South,190,3.0,5.0,82,0.00,,,0.04,,2013-01-07 14:43:00,
2013-01-07 09:53:00,27.0,22.0,30.41,SSW,213,2.0,6.0,82,0.00,,,0.04,,2013-01-07 14:53:00,
2013-01-07 10:03:00,27.0,22.0,30.42,SSW,206,1.0,5.0,82,0.00,,,0.04,,2013-01-07 15:03:00,
2013-01-07 10:12:00,27.0,22.0,30.42,SSW,206,1.0,5.0,82,0.00,,,0.04,,2013-01-07 15:12:00,
2013-01-07 10:22:00,27.0,22.0,30.42,SSW,206,2.0,3.0,82,0.00,,,0.04,,2013-01-07 15:22:00,
2013-01-07 10:33:00,28.0,23.0,30.41,SSW,198,2.0,5.0,80,0.00,,,0.04,,2013-01-07 15:33:00,
2013-01-07 10:43:00,28.0,23.0,30.41,SSW,198,2.0,5.0,80,0.00,,,0.04,,2013-01-07 15:43:00,
2013-01-07 10:53:00,29.0,23.0,30.41,SSW,208,3.0,5.0,79,0.00,,,0.04,,2013-01-07 15:53:00,
2013-01-07 11:02:00,29.0,23.0,30.41,South,188,1.0,6.0,78,0.00,,,0.04,,2013-01-07 16:02:00,
2013-01-07 11:12:00,29.0,23.0,30.41,South,188,1.0,6.0,78,0.00,,,0.04,,2013-01-07 16:12:00,
2013-01-07 11:22:00,29.0,23.0,30.41,SW,233,2.0,6.0,78,0.00,,,0.04,,2013-01-07 16:22:00,
2013-01-07 11:33:00,29.0,23.0,30.40,SW,215,3.0,5.0,77,0.00,,,0.04,,2013-01-07 16:33:00,
2013-01-07 11:43:00,29.0,23.0,30.40,SW,215,3.0,5.0,77,0.00,,,0.04,,2013-01-07 16:43:00,
2013-01-07 11:53:00,29.0,22.0,30.40,SSW,213,3.0,8.0,75,0.00,,,0.04,,2013-01-07 16:53:00,
2013-01-07 12:03:00,29.0,22.0,30.39,SW,216,3.0,5.0,74,0.00,,,0.04,,2013-01-07 17:03:00,
2013-01-07 12:12:00,29.0,22.0,30.39,SW,216,3.0,5.0,74,0.00,,,0.04,,2013-01-07 17:12:00,
2013-01-07 12:23:00,30.0,23.0,30.38,SW,216,3.0,6.0,75,0.00,,,0.04,,2013-01-07 17:23:00,
2013-01-07 12:33:00,31.0,24.0,30.38,SW,218,3.0,8.0,75,0.00,,,0.04,,2013-01-07 17:33:00,
2013-01-07 12:42:00,31.0,24.0,30.38,SW,218,3.0,8.0,75,0.00,,,0.04,,2013-01-07 17:42:00,
2013-01-07 12:53:00,31.0,24.0,30.37,SSW,208,3.0,7.0,76,0.00,,,0.04,,2013-01-07 17:53:00,
2013-01-07 13:03:00,31.0,24.0,30.36,South,190,4.0,8.0,75,0.00,,,0.04,,2013-01-07 18:03:00,
2013-01-07 13:12:00,31.0,24.0,30.36,South,190,4.0,8.0,75,0.00,,,0.04,,2013-01-07 18:12:00,
2013-01-07 13:23:00,32.0,26.0,30.35,SW,214,3.0,6.0,77,0.00,,,0.00,,2013-01-07 18:23:00,
2013-01-07 13:33:00,32.0,26.0,30.34,SSW,206,4.0,9.0,78,0.00,,,0.00,,2013-01-07 18:33:00,
2013-01-07 13:42:00,32.0,27.0,30.34,SW,219,6.0,10.0,83,0.00,,,0.00,,2013-01-07 18:42:00,
2013-01-07 13:53:00,32.0,27.0,30.34,SW,219,6.0,10.0,83,0.00,,,0.00,,2013-01-07 18:53:00,
2013-01-07 14:03:00,32.0,26.0,30.33,South,188,6.0,9.0,78,0.00,,,0.00,,2013-01-07 19:03:00,
2013-01-07 14:12:00,32.0,26.0,30.33,South,188,6.0,9.0,78,0.00,,,0.00,,2013-01-07 19:12:00,
2013-01-07 14:23:00,33.0,27.0,30.32,SW,224,4.0,8.0,79,0.00,,,0.00,,2013-01-07 19:23:00,
2013-01-07 14:33:00,33.0,27.0,30.32,SW,216,6.0,9.0,79,0.00,,,0.00,,2013-01-07 19:33:00,
2013-01-07 14:43:00,33.0,27.0,30.32,SW,216,6.0,9.0,79,0.00,,,0.00,,2013-01-07 19:43:00,
2013-01-07 14:53:00,34.0,28.0,30.31,SW,227,6.0,10.0,80,0.00,,,0.00,,2013-01-07 19:53:00,
2013-01-07 15:03:00,34.0,28.0,30.30,South,187,7.0,12.0,80,0.00,,,0.00,,2013-01-07 20:03:00,
2013-01-07 15:12:00,34.0,28.0,30.30,South,187,7.0,12.0,80,0.00,,,0.00,,2013-01-07 20:12:00,
2013-01-07 15:23:00,34.0,29.0,30.29,South,184,7.0,15.0,81,0.00,,,0.00,,2013-01-07 20:23:00,
2013-01-07 15:33:00,35.0,30.0,30.29,SSW,200,7.0,12.0,81,0.00,,,0.00,,2013-01-07 20:33:00,
2013-01-07 15:42:00,35.0,30.0,30.29,SSW,200,7.0,12.0,81,0.00,,,0.00,,2013-01-07 20:42:00,
2013-01-07 15:53:00,36.0,30.0,30.28,SSW,213,8.0,13.0,80,0.00,,,0.00,,2013-01-07 20:53:00,
2013-01-07 16:03:00,36.0,30.0,30.27,SW,223,8.0,15.0,80,0.00,,,0.00,,2013-01-07 21:03:00,
2013-01-07 16:12:00,36.0,30.0,30.27,SW,223,8.0,15.0,80,0.00,,,0.00,,2013-01-07 21:12:00,
2013-01-07 16:23:00,36.0,31.0,30.27,SW,216,6.0,15.0,81,0.00,,,0.00,,2013-01-07 21:23:00,
2013-01-07 16:33:00,36.0,30.0,30.26,SW,232,8.0,15.0,80,0.00,,,0.00,,2013-01-07 21:33:00,
2013-01-07 16:43:00,36.0,30.0,30.26,SW,232,8.0,15.0,80,0.00,,,0.00,,2013-01-07 21:43:00,
2013-01-07 16:53:00,36.0,29.0,30.26,SSW,210,9.0,16.0,76,0.00,,,0.00,,2013-01-07 21:53:00,
2013-01-07 17:03:00,36.0,29.0,30.26,SSW,201,10.0,18.0,75,0.00,,,0.00,,2013-01-07 22:03:00,
2013-01-07 17:12:00,36.0,29.0,30.26,SSW,201,10.0,18.0,75,0.00,,,0.00,,2013-01-07 22:12:00,
2013-01-07 17:23:00,36.0,29.0,30.25,SW,236,8.0,15.0,76,0.00,,,0.00,,2013-01-07 22:23:00,
2013-01-07 17:33:00,36.0,29.0,30.25,SW,221,6.0,13.0,77,0.00,,,0.00,,2013-01-07 22:33:00,
2013-01-07 17:43:00,36.0,29.0,30.25,SW,221,6.0,13.0,77,0.00,,,0.00,,2013-01-07 22:43:00,
2013-01-07 17:53:00,36.0,29.0,30.24,SSW,204,6.0,16.0,77,0.00,,,0.00,,2013-01-07 22:53:00,
2013-01-07 18:02:00,36.0,29.0,30.24,SW,214,6.0,12.0,77,0.00,,,0.00,,2013-01-07 23:02:00,
2013-01-07 18:12:00,36.0,29.0,30.24,SSW,202,6.0,11.0,77,0.00,,,0.00,,2013-01-07 23:12:00,
2013-01-07 18:22:00,36.0,29.0,30.24,SSW,202,6.0,11.0,77,0.00,,,0.00,,2013-01-07 23:22:00,
2013-01-07 18:33:00,36.0,29.0,30.23,SW,223,7.0,13.0,77,0.00,,,0.00,,2013-01-07 23:33:00,
2013-01-07 18:43:00,36.0,29.0,30.23,SW,223,7.0,13.0,77,0.00,,,0.00,,2013-01-07 23:43:00,
2013-01-07 18:53:00,35.0,29.0,30.22,SW,223,7.0,16.0,77,0.00,,,0.00,,2013-01-07 23:53:00,
2013-01-07 19:03:00,35.0,29.0,30.22,SW,216,9.0,12.0,78,0.00,,,0.00,,2013-01-08 00:03:00,
2013-01-07 19:12:00,35.0,29.0,30.22,SW,216,9.0,12.0,78,0.00,,,0.00,,2013-01-08 00:12:00,
2013-01-07 19:22:00,35.0,29.0,30.22,SSW,211,8.0,14.0,78,0.00,,,0.00,,2013-01-08 00:22:00,
2013-01-07 19:33:00,35.0,29.0,30.21,SW,226,9.0,16.0,78,0.00,,,0.00,,2013-01-08 00:33:00,
2013-01-07 19:42:00,35.0,29.0,30.21,SW,226,9.0,16.0,78,0.00,,,0.00,,2013-01-08 00:42:00,
2013-01-07 19:53:00,35.0,29.0,30.21,SW,218,9.0,14.0,78,0.00,,,0.00,,2013-01-08 00:53:00,
2013-01-07 20:03:00,35.0,29.0,30.22,SW,223,8.0,14.0,79,0.00,,,0.00,,2013-01-08 01:03:00,
2013-01-07 20:12:00,35.0,29.0,30.22,SW,223,8.0,14.0,79,0.00,,,0.00,,2013-01-08 01:12:00,
2013-01-07 20:22:00,35.0,29.0,30.22,SW,224,6.0,11.0,78,0.00,,,0.00,,2013-01-08 01:22:00,
2013-01-07 20:33:00,35.0,29.0,30.22,SSW,202,6.0,12.0,79,0.00,,,0.00,,2013-01-08 01:33:00,
2013-01-07 20:42:00,35.0,29.0,30.22,SSW,202,6.0,12.0,79,0.00,,,0.00,,2013-01-08 01:42:00,
2013-01-07 20:52:00,36.0,30.0,30.22,SW,227,6.0,15.0,78,0.00,,,0.00,,2013-01-08 01:52:00,
2013-01-07 21:02:00,35.0,29.0,30.22,SW,219,7.0,16.0,78,0.00,,,0.00,,2013-01-08 02:02:00,
2013-01-07 21:12:00,35.0,29.0,30.22,SW,219,7.0,16.0,78,0.00,,,0.00,,2013-01-08 02:12:00,
2013-01-07 21:22:00,35.0,29.0,30.22,SW,225,7.0,15.0,79,0.00,,,0.00,,2013-01-08 02:22:00,
2013-01-07 21:33:00,35.0,29.0,30.21,SW,218,7.0,12.0,78,0.00,,,0.00,,2013-01-08 02:33:00,
2013-01-07 21:42:00,35.0,29.0,30.21,SW,218,7.0,12.0,78,0.00,,,0.00,,2013-01-08 02:42:00,
2013-01-07 21:53:00,35.0,29.0,30.20,SSW,211,9.0,16.0,79,0.00,,,0.00,,2013-01-08 02:53:00,
2013-01-07 22:03:00,35.0,29.0,30.19,SSW,200,10.0,18.0,79,0.00,,,0.00,,2013-01-08 03:03:00,
2013-01-07 22:12:00,35.0,29.0,30.19,SSW,200,10.0,18.0,79,0.00,,,0.00,,2013-01-08 03:12:00,
2013-01-07 22:22:00,35.0,29.0,30.19,SW,226,9.0,14.0,79,0.00,,,0.00,,2013-01-08 03:22:00,
2013-01-07 22:32:00,35.0,29.0,30.56,SW,230,10.0,17.0,80,0.00,,,0.00,,2013-01-08 03:32:00,
2013-01-07 22:43:00,35.0,29.0,30.56,SW,230,10.0,17.0,80,0.00,,,0.00,,2013-01-08 03:43:00,
2013-01-07 22:53:00,35.0,29.0,30.18,SW,215,10.0,16.0,80,0.00,,,0.00,,2013-01-08 03:53:00,
2013-01-07 23:02:00,35.0,29.0,30.18,SSW,202,9.0,17.0,80,0.00,,,0.00,,2013-01-08 04:02:00,
2013-01-07 23:12:00,35.0,29.0,30.18,SSW,202,9.0,17.0,80,0.00,,,0.00,,2013-01-08 04:12:00,
2013-01-07 23:22:00,35.0,29.0,30.18,SW,221,8.0,15.0,80,0.00,,,0.00,,2013-01-08 04:22:00,
2013-01-07 23:32:00,35.0,29.0,30.16,SSW,209,12.0,18.0,80,0.00,,,0.00,,2013-01-08 04:32:00,
2013-01-07 23:42:00,35.0,29.0,30.16,SSW,209,12.0,18.0,80,0.00,,,0.00,,2013-01-08 04:42:00,
2013-01-07 23:52:00,35.0,29.0,30.16,SW,223,14.0,23.0,79,0.00,,,0.00,,2013-01-08 04:52:00,